Location: ?
(35.4554°N, 139.3092°E)
Time: 21:08:55
(UTC+00:00)

CZ-4C R/B - Pass Details

Date: 21 April 2021
Orbit: 405 x 487 km, 97.7° (Epoch: 10 May)

Event Time Altitude Azimuth Distance (km) Brightness Sun altitude
Rises 19:34:46 0° 173° (S) 2,516 6.6 -6.1°
Reaches altitude 10° 19:36:51 10° 177° (S) 1,633 5.6 -5.7°
Maximum altitude 19:40:20 63° 259° (WSW) 526 3.0 -5.0°
Drops below altitude 10° 19:43:45 10° 341° (NNW) 1,604 5.7 -4.4°
Sets 19:45:47 0° 345° (NNW) 2,467 6.7 -4.0°
